Погода в Слуцке

Погода в Слуцке : погода сейчас, прогноз погоды и архив. Всё, что Вы хотите узнать о погоде в Слуцке!

Хотите узнать прогноз погоды в Слуцке? Тогда Вам сюда: Погода в Слуцке

Поиск расширенной информации на нашем сайте:

Другие новости

Новости СМИ2

Главная страница сайта

Новости сайта

02.10.2013

Напоминаем, что на нашем новом сайте вы можете получить высокодетализированные прогнозы погоды по пунктам России, СНГ и мира (включающие важные для авиации метеовеличины, такие как направление и скорость ветра, видимость, явления погоды, количество и форма облачности, нижняя и верхняя граница облачности), а также ознакомиться с разнообразными материалами по авиационной метеорологии и подборкой полезных ссылок на эту тему.

Сайт Метеоцентр.Азия посвящён разработке технологий оптимизации авиаметеорологического обслуживания, включая проектирование и перспективное создание нескольких автоматизированных авиаметеорологических систем:
- система выпуска высокодетальных прогностических карт явлений погоды для нижнего воздушного пространства по России и ближнему зарубежью;
- система верификации прогнозов TAF (выпускаемых синоптиками официальных АМСГ РФ и ближнего зарубежья) и AUTOTAF (выпускаемых сайтом Метеоцентр.Азия) - выявление ошибок, онлайн-сопоставление с фактической погодой METAR, автоматическое внесение коррективов в прогнозы при резком отклонении фактической погоды от прогноза, подсчёт оправдываемости прогнозов по элементам и в целом;
- система обработки, анализа и отображения авиаметеорологической информации для применения провайдерами метеорологической информации.

Рекомендуем: Купить броненакладки апекс коллекция престиж купить.

Погода в Слуцке - сегодня

Время (UTC), дата Ветер
(°,м/с) 
Видим.   Явления Облачность Т
(°С)
Тd
(°С)
f(%) Тe
(°С)
Pmin
(гПа)
dP
(гПа)
Po
(мм)
O2
(г/м3)
Тmin Tmax R s Состояние
почвы
18 30.06.15 330 (СЗ) 24000 м  {гроза, ливн. осадки}  4/3 600 м верхняя 
[Sc diur, vesp|Cc]
+20.3 +15.6 74 +30  1017.4  -0.1  749  278    +25.9  0.0     
21 30.06.15 тихо ()   15000 м    8/8 600 м 
[Sc]
+17.9 +14.2 79 +25  1018.3  0.8  749  281           
00 01.07.15 тихо ()   15000 м    5/0 средняя 
[Ac trans]
+14.8 +12.8 88 +20  1018.8  0.2  750  284           
03 01.07.15 тихо ()   12000 м    6/1 600 м средняя, верхняя 
[Sc|Ac cast|Cc]
+11.8 +10.6 92 +14  1019  0.1  750  288           
06 01.07.15 320 (СЗ) 12000 м    9/9 600 м средняя 
[Sc|Ac und]
+16.2 +13.1 82 +24  1019.7  0.9  750  283  +11.4         
09 01.07.15 240 (ЮЗ) 15000 м  в посл. час ливневой дождь  9/9 600 м кучево-дожд. 
[Cb cap]
+17.5 +14.6 83 +26  1019.9  0.4  751  281      0.0     
12 01.07.15 330 (СЗ) 6000 м  гроза, ливневой дождь  9/9 630 м кучево-дожд. 
[Cb cap]
+16.6 +14.7 89 +25  1019.7  -0.4  750  282      0.8     
15 01.07.15 320 (СЗ) 14000 м  {гроза, ливн. осадки}  9/8 600 м кучево-дожд., средняя 
[Cb cap|Ac trans]
+20 +14.1 69 +27  1018.7  -0.7  750  279         
18 01.07.15 330 (СЗ) 12000 м  {гроза, ливн. осадки}  5/3 600 м кучево-дожд., средняя, верхняя 
[Cb cap|Ac cast|Cc]
+17 +14.4 85 +26  1020  751  282    +23.6     
21 01.07.15 340 (С) 1{11}  12000 м  {гроза, ливн. осадки}  3/0 средняя 
[Ac trans]
+12.6 +12.1 97 +18  1022  1.7  752  287           
00 02.07.15 350 (С) 10 км  {гроза, ливн. осадки}  ясно 
+11 +10.4 96 +13  1023  0.8  752  290           
03 02.07.15 010 (С) 8000 м  дымка  ясно 
+10.8 +10.6 99 +13  1023.9  0.9  753  290      0.6     
06 02.07.15 020 (С) 14000 м    6/0 верхняя 
[Ci fib]
+17.4 +14.5 83 +26  1024.5  1.2  754  283  +9.9    0.6     
09 02.07.15 020 (С) 15000 м    8/8 600 м 
[Cu med, cong]
+21 +13.1 61 +26  1024.9  0.5  754  280           
12 02.07.15 340 (С) 20000 м    8/8 600 м 
[Cu med, cong]
+23.3 +11.2 46 +26  1024.8  754  278           
15 02.07.15 360 (С) 20000 м    5/5 600 м 
[Cu hum]
+24.2 +10.3 41 +26  1024.5  -0.2  754  277           
18 02.07.15 360 (С) 18000 м    5/0 верхняя 
[Ci sp]
+20.2 +10.3 53 +22  1025.7  755  281    +24.8       
21 02.07.15 350 (С) 15000 м    3/0 верхняя 
[Ci fib]
+13.7 +10.9 83 +17  1027.8  1.6  756  288           
00 03.07.15 030 (СВ) 13000 м    ясно 
+11 +9.4 90 +12  1028.7  0.6  757  291           
03 03.07.15 010 (С) 15000 м    ясно 
+10.3 +8.9 91 +11  1029.3  0.6  757  292           
06 03.07.15 070 (В) 19000 м    3/0 верхняя 
[Ci fib]
+19.4 +11.4 60 +23  1029.8  1.1  758  283  +9.6         
09 03.07.15 030 (СВ) 25000 м    1/0 верхняя 
[Ci fib]
+24 +8.5 37 +24  1029.5  0.1  758  279           
12 03.07.15 010 (С) 25000 м    3/0 верхняя 
[Ci fib]
+26.5 +7.4 30 +27  1028.7  -0.7  758  277           
15 03.07.15 040 (СВ) 20000 м    5/0 верхняя 
[Ci fib]
+27.5 +9 31 +28  1027.9  -0.8  757  276           
18 03.07.15 040 (СВ) 15000 м    5/0 верхняя 
[Ci fib]
+25.2 +12.2 44 +29  1027.5  -0.5  757  277    +28       
Время (UTC), дата Ветер
(°,м/с) 
Видим.   Явления Облачность Т
(°С)
Тd
(°С)
f(%) Тe
(°С)
Pmin
(гПа)
dP
(гПа)
Po
(мм)
O2
(г/м3)
Тmin Tmax R s Состояние
почвы

Для получения пояснительной информации подведите курсор к названию столбца.

ПОГОДА в Слуцке - архив

Всё, что Вы хотите узнать о погоде в Слуцке - удобно и подробно!

Выберите нужную дату (начиная с 1 января 2013* года) и нажмите кнопку "Найти".
Будут отображены архивные сводки погоды по пункту Слуцк, начиная с указанной даты.


Отображать данные в формате CSV (для использования в таблицах Excel)


Внимание! Наш архив погоды предназначен исключительно для личного некоммерческого использования в познавательных целях. Если Вам необходимы официальные справки о состоянии погоды (для производственных, юридических, коммерческих и т.п. целей), обращайтесь в органы Росгидромета.

*Примечание: данная дата относится к архиву по метеостанциям СССР (Россия, СНГ, Балтия).
Архив по метеостанциям Зарубежной Европы и Азии (кроме Китая) хранится 10 дней, по другим регионам земного шара (Китай, Африка, Америка, Австралия, Океания) - 1 день.

Слуцк - район местоположения метеостанции


Название, широта, долгота, высота метеостанции:
Слуцк 53°ш. 27.6°д. 162 м над ур. моря [Беларусь]

Дополнительная информация

В oтличие oт бoльшинства пoгoдных сайтoв мы публикуем пoдрoбную метеoинфoрмацию в детальнoм прoфессиoнальнoм фoрмате.

Характеристики температуры и влажнoсти вoздуха измеряются на высoте 2 м в тени вдали oт зданий и деревьев.
Скoрoсть ветра измеряется на высoте 10 м (на урoвне рoста челoвека скoрoсть ветра ниже в 1.5-2 раза). Если метеoстанция нахoдится в гoрoде или в лесу, тo скoрoсть ветра занижена на 2-4 м/с пo сравнению с oткрытым местoм. Скoрoсть ветра над акватoриями крупных рек и oзёр, а также на вершинах хoлмoв на 2-5 м/с выше, чем в oбычных услoвиях.
Атмoсфернoе давление в разных тoчках местнoсти мoжет значительнo oтличаться oт давления на метеoстанции, в зависимoсти oт услoвий рельефа (при пoдъёме на 10 м давление пoнижается примернo на 1 мм рт.ст.).